{"data":{"norad_id":41898,"intl_designator":"2016-081A","name":"TANSAT","alt_names":[],"object_type":"PAYLOAD","status":"ACTIVE","operator":null,"country":"PRC","launch_date":"2016-12-21","launch_site_code":"JSC","launch_vehicle":null,"mission":null,"orbit_class":"UNKNOWN","rcs_meters":1.4246,"size_class":null,"mass_kg":null,"dimensions":null,"purposes":[],"wikipedia_slug":null,"has_3d_model":false,"image_url":null,"decayed_at":null,"tle_current":{"epoch":"2026-09-20T05:41:20.517792Z","epoch_age_seconds":71088,"freshness":"FRESH","line1":"1 41898U 16081A   26263.23704303  .00000149  00000+0  41463-4 0  9992","line2":"2 41898  98.5428 266.3331 0021080  18.9014 341.2963 14.60005586518496","mean_motion":14.60005586,"eccentricity":0.002108,"inclination_deg":98.5428,"raan_deg":266.3331,"arg_perigee_deg":18.9014,"mean_anomaly_deg":341.2963,"bstar":4.1463e-5,"rev_number":51849,"period_min":98.629759626139,"perigee_km":678.24966645456,"apogee_km":708.06223754018,"semimajor_km":7071.2929519974,"source":"CELESTRAK","updated_at":"2026-09-20T09:00:14.166850Z"}}}